Regional Weather Roundup
Issued by NWS Goodland, KS

Home | Current Version | Previous Version | Text Only | Print | Product List | Glossary On
Versions: 1 2 3 4 5 6 7 8 9 10 11 12 13 14 15 16 17 18 19 20 21 22 23 24 25 26 27 28 29 30 31 32 33 34 35 36 37 38 39 40 41 42 43 44 45 46 47 48 49 50
000
ASUS43 KGLD 221508
RWRGLD

GOODLAND FORECAST AREA HOURLY WEATHER ROUNDUP
NATIONAL WEATHER SERVICE GOODLAND KS
800 AM MST SAT NOV 22 2014

...OFFICIAL OBSERVATIONS...

CITY           SKY/WX    TMP DP  RH WIND       PRES   REMARKS
GOODLAND KS    SUNNY     47  22  37 SW12      29.81F
HILL CITY KS   SUNNY     32  26  78 S3        29.83F
IMPERIAL NEB   SUNNY     32  20  61 SW6       29.76F
MCCOOK NEB     MOSUNNY   27  21  78 W3        29.79F
AKRON CO       SUNNY     46  18  32 SW17      29.76F
BURLINGTON CO  SUNNY     45  22  40 SW12      29.81F
LIMON CO       SUNNY     44  15  31 W7G17     29.82F
$$

...UNOFFICIAL OBSERVATIONS...

CITY           SKY/WX    TMP DP  RH WIND       PRES   REMARKS
COLBY KS       SUNNY     39  30  70 SW6       29.80F
GOVE KS          N/A     31  32 100 MISG        N/A
NORTON KS      SUNNY     30  25  80 SW5       29.79F
SHARON SPRINGS   N/A     38  28  68 SW12        N/A
TRIBUNE KS     SUNNY     39  32  75 W9        29.85F
TRENTON NEB      N/A     37  32  82 SW9         N/A
YUMA CO          N/A     42  21  43 SW13        N/A
$$


USA.gov is the U.S. government's official web portal to all federal, state and local government web resources and services.